Location: Casilda
(33.0440°S, 61.1680°W)
Time: 01:25:35
(UTC-03:00)

ISS - Pass Details

Date: 07 May 2021
Orbit: 417 x 422 km, 51.6° (Epoch: 12 May)

Event Time Altitude Azimuth Distance (km) Brightness Sun altitude
Rises 19:39:21 0° 222° (SW) 2,392 0.5 -17.0°
Reaches altitude 10° 19:41:31 10° 217° (SW) 1,520 -0.6 -17.5°
Maximum altitude 19:44:51 53° 139° (SE) 530 -3.6 -18.2°
Enters shadow 19:44:53 53° 137° (SE) 530 -3.6 -18.2°
